Location: Pedholt
(56.0260°N, 10.2097°E)
Time: 06:15:17
(UTC+00:00)

Cosmos 1515 - Pass Details

Date: 14 July 2020
Orbit: 507 x 515 km, 82.5° (Epoch: 14 August)

Event Time Altitude Azimuth Distance (km) Brightness Sun altitude
Rises 01:06:57 0° 343° (NNW) 2,644 8.1 -9.4°
Reaches altitude 10° 01:09:10 10° 335° (NNW) 1,753 7.0 -9.3°
Maximum altitude 01:12:45 39° 267° (W) 793 4.4 -9.1°
Enters shadow 01:16:00 12° 200° (SSW) 1,618 5.5 -8.9°
